Find Starlink 4644

NORAD ID: 53719 Int'l Des: 2022-107 Owner: SPXS Country: US Constellation: starlink operational
LEOCIRCULAR

Live Position

Loading 3D Globe...

About Starlink 4644

Description loading...

Upcoming Passes

Passes for default location (London). Set your location on the main map for personalized predictions.

Altitude History

Loading altitude history...

Two-Line Element Set

1 53719U 22107V 26126.81040544 -.00000044 00000-0 15304-4 0 9996
2 53719 53.2179 322.8273 0001535 108.5315 251.5844 15.08837914203615
Epoch: May 6, 2026 • Age: 5 hours

Current Status

Altitude 540.3 km
Velocity 7.60 km/s
Sub-Earth Point 28.46°N, 119.63°W
Launch Date Sep 5, 2022
Age 3.6 years
Type internet

Technical Details

Classification Payload
Mass 305.00 kg
Dry Mass 290.00 kg
Total Mass 305.00 kg
Length 0.20 m
Diameter 2.80 m
Span 9.00 m
Shape Box + pan
Manufacturer SPXS
Bus Type Starlink
Phase Status In Orbit
Owner/State SPXS/US

Most Searched